[[[{"header":{"parameterUnit":"kt","parameterCategory":2,"dx":1,"dy":1,"la1":30.253999710083008,"la2":30.299108505249023,"lo1":-89.0895004272461,"lo2":-89.04439544677734,"nx":28,"ny":28,"refTime":"2022-10-29T21:00:00:Z","depth":0,"parameterNumber":1,"parameterNumberName":"U-component_of_WINDS"},"data":[9.5558,9.568,9.5626,9.5742,9.5713,9.5782,9.579,9.5795,9.5784,9.5863,9.5899,9.5858,9.5827,9.5858,9.5895,9.5875,9.5894,9.5979,9.5941,9.5611,9.5562,9.5514,9.5479,9.5985,9.5985,9.6289,9.6292,9.6294,9.5325,9.5297,9.5342,9.5347,9.5386,9.5272,9.5268,9.5307,9.5374,9.5362,9.5393,9.5459,9.5504,9.5442,9.5476,9.5534,9.5481,9.5547,9.554,9.5537,9.5183,9.5146,9.5589,9.5589,9.5589,9.5589,9.5589,9.5589,9.4886,9.4962,9.4931,9.4978,9.4966,9.4972,9.5035,9.4979,9.5023,9.5049,9.4975,9.5049,9.5026,9.5039,9.503,9.5087,9.5003,9.5057,9.507,9.5085,9.5109,9.4677,9.509,9.5089,9.5087,9.5086,9.5085,0,9.4545,9.4493,9.4531,9.4553,9.4584,9.4596,9.4598,9.4635,9.4504,9.4547,9.4602,9.4625,9.4671,9.4718,9.4736,9.4713,9.4597,9.458,9.4616,9.4651,9.4683,9.4666,9.409,9.4567,9.4562,9.4559,9.4556,9.4554,9.4096,9.4191,9.4131,9.4165,9.415,9.4209,9.4231,9.4107,9.4137,9.4121,9.4195,9.424,9.4268,9.4369,9.4302,9.4336,9.4279,9.4468,9.4283,9.4316,9.428,9.4274,9.4283,9.4505,9.4511,9.4516,9.452,0,9.3849,9.3753,9.3881,9.3811,9.3796,9.3903,9.3842,9.3914,9.385,9.3939,9.3953,9.3854,9.3911,9.3812,9.3858,9.3805,9.3982,9.3927,9.3989,9.3972,9.413,9.4116,9.4659,9.4723,9.4201,9.4206,9.421,0,9.3427,9.3556,9.3405,9.3485,9.3625,9.3494,9.3637,9.3595,9.357,9.3639,9.3489,9.3557,9.3419,9.3474,9.3395,9.3523,9.3531,9.3497,9.3474,9.3509,9.3514,9.3521,9.3496,9.342,9.3418,9.3415,9.3413,0,9.3047,9.3117,9.3245,9.3245,9.3181,9.3245,9.3222,9.3191,9.3214,9.3229,9.3242,9.327,9.3285,9.3309,9.3207,9.3086,9.3361,9.3172,9.3325,9.3328,9.3388,9.3385,9.3894,9.341,9.3409,9.3408,9.3407,0,9.2689,9.2703,9.2904,9.2845,9.2869,9.2954,9.2969,9.3018,9.2997,9.2951,9.2961,9.2847,9.295,9.2771,9.291,9.2781,9.2805,9.2781,9.279,9.279,9.2591,9.2889,9.3386,9.3433,9.2796,9.2791,9.2787,0,9.2281,9.2456,9.2341,9.2535,9.2601,9.2424,9.2517,9.2501,9.2446,9.2495,9.2435,9.2493,9.2338,9.2341,9.2424,9.2364,9.2533,9.2339,9.2413,9.2418,9.2422,9.2878,9.2975,9.3289,9.272,9.2727,9.2732,0,9.195,9.1866,9.1909,9.1901,9.1856,9.191,9.2018,9.2043,9.2082,9.208,9.2166,9.2245,9.213,9.2137,9.2046,9.2138,9.2415,9.2002,9.1999,9.2079,9.2678,9.277,9.2823,9.2334,9.2342,9.2349,9.2679,0,9.1429,9.1502,9.1612,9.1602,9.1627,9.1742,9.1628,9.167,9.1578,9.1515,9.1641,9.16,9.1627,9.166,9.1571,9.1812,9.1755,9.1632,9.1446,9.1748,9.1854,9.1897,9.1298,9.1292,9.1287,9.1282,0,0,9.1062,9.1162,9.103,9.1126,9.1138,9.0949,9.1081,9.1072,9.1058,9.1072,9.0968,9.1073,9.1043,9.1207,9.1292,9.1304,9.1336,9.1234,9.1606,9.1642,9.1676,9.1791,9.1838,9.1273,9.1271,9.127,9.1268,0,9.0846,9.0816,9.0947,9.0931,9.09,9.0826,9.0858,9.0795,9.076,9.088,9.0722,9.0784,9.087,9.0859,9.0865,9.1213,9.1089,9.123,9.1454,9.1558,9.1601,9.1639,9.1762,9.1808,9.1255,9.1256,9.1257,0,9.0498,9.045,9.05,9.0517,9.0495,9.0567,9.0345,9.043,9.0483,9.027,9.0391,9.0353,9.0329,9.0498,9.0569,9.0476,9.0871,9.0726,9.0755,9.076,9.0855,9.0907,9.0954,9.034,9.0337,9.0335,0,0,9.0327,9.0392,9.0299,9.0461,9.0459,9.0349,9.0375,9.0283,9.0263,9.0256,9.0203,9.019,9.0238,9.0273,9.0312,9.0514,9.0498,9.0618,9.0661,9.0697,9.0721,9.0826,9.0878,9.0324,9.0324,9.0324,0,0,9.0245,9.0141,9.005,9.0223,9.021,9.0128,9.0233,9.0119,9.0141,9.0115,8.9966,8.9956,9.0111,9.008,8.9955,9.0244,9.0063,9.0091,9.0258,9.0311,9.0353,9.0357,8.972,0,0,0,0,0,8.9962,9.0154,9.0072,9.0083,9.0103,9.0174,9.0176,9.0055,8.9929,9.0015,8.9953,8.9817,8.9982,8.9868,8.9882,9.0022,9.0191,9.0215,9.0237,9.05,9.0556,9.0604,0,0,0,0,0,0,8.9966,8.998,9.0066,8.9995,8.9998,9.0166,8.9926,8.9899,8.9917,8.989,8.9834,8.9816,8.9715,8.9852,8.9867,9.0002,8.9714,9.0201,9.0221,9.0239,9.0519,9.0565,9.0605,0,0,0,0,0,8.9968,8.9979,9.0042,8.9991,8.9994,8.988,8.9918,8.9893,8.9905,8.9807,8.9784,8.9812,8.9723,8.9727,8.986,8.9998,8.9703,8.9709,9.0214,9.0229,9.0243,9.0542,0,0,0,0,0,0,8.9969,8.9958,9.0039,9.0036,8.9908,8.9868,8.9857,8.9889,8.9818,8.9798,8.9777,8.9756,8.973,8.9732,8.9736,9.0004,8.9694,8.97,8.9704,9.0226,9.0238,9.0249,0,0,0,0,0,0,8.995,8.9956,9.0037,8.9939,8.9923,8.9858,8.9848,8.9943,8.982,8.9792,8.9772,8.9768,8.9724,8.9737,8.9739,8.9893,8.9687,8.9693,8.9697,8.9699,9.0236,9.0245,0,0,0,0,0,0,8.9951,8.9955,8.9939,8.9927,8.9913,8.9863,8.9939,8.9967,8.9735,8.9798,8.9711,8.97,8.9733,8.9732,8.9743,8.9896,8.9894,8.9687,8.9691,8.9694,8.9696,0,0,0,0,0,0,0,8.9951,8.9948,9.0061,8.9917,8.9904,9.0002,9.0001,9.0,8.9733,8.9723,8.9713,8.9704,8.9653,8.9659,8.9666,8.9899,0,0,8.9686,8.9689,0,0,0,0,0,0,0,0,8.9943,8.9947,9.0061,9.006,9.0059,9.0002,9.0001,9.0001,8.9731,8.9723,8.9715,8.9708,8.9654,8.966,8.9665,0,0,0,0,0,0,0,0,0,0,0,0,0,0,0,9.006,9.006,0,9.0002,9.0002,9.0001,8.973,8.9723,8.9717,8.9711,8.9656,8.966,8.9665,0,0,0,0,0,0,0,0,0,0,0,0,0,0,0,0,0,0,0,0,0,0,0,0,0,0,0,0,0,0,0,0,0,0,0,0,0,0,0,0,0,0,0,0,0,0,0,0,0,0,0,0,0,0,0,0,0,0,0,0,0,0,0,0,0,0,0,0,0]}],[{"header":{"parameterUnit":"kt","parameterCategory":2,"dx":1,"dy":1,"la1":30.253999710083008,"la2":30.299108505249023,"lo1":-89.0895004272461,"lo2":-89.04439544677734,"nx":28,"ny":28,"refTime":"2022-10-29T21:00:00:Z","depth":0,"parameterNumber":2,"parameterNumberName":"V-component_of_WINDS"},"data":[0.9357,0.9363,0.9387,0.9404,0.9428,0.9444,0.9457,0.9476,0.9498,0.9519,0.9535,0.956,0.9592,0.9616,0.9635,0.9646,0.9651,0.9633,0.9648,0.9706,0.9716,0.9725,0.9725,0.9634,0.9634,0.9585,0.9584,0.9584,0.9389,0.9413,0.9431,0.9464,0.9478,0.9509,0.9538,0.9547,0.9561,0.9588,0.9607,0.9628,0.9647,0.9687,0.971,0.9711,0.9727,0.9716,0.9715,0.9719,0.9782,0.9782,0.9702,0.9702,0.9702,0.9702,0.9702,0.9702,0.9454,0.9457,0.9492,0.9512,0.9536,0.9558,0.9565,0.9597,0.9615,0.9643,0.9671,0.9687,0.972,0.9763,0.9783,0.9796,0.9814,0.9809,0.9808,0.9805,0.9798,0.9859,0.9802,0.9802,0.9802,0.9803,0.9803,0,0.9509,0.9529,0.955,0.9576,0.9592,0.9615,0.9641,0.9647,0.9702,0.9714,0.9734,0.975,0.9781,0.9803,0.9832,0.9856,0.989,0.9898,0.9894,0.9879,0.986,0.9867,0.9965,0.99,0.99,0.9901,0.9902,0.9902,0.9574,0.9577,0.9628,0.9638,0.966,0.9676,0.9691,0.974,0.9754,0.9794,0.9795,0.9818,0.9839,0.9868,0.9907,0.9931,0.9948,0.9919,0.9953,0.9937,0.9945,0.9943,0.9942,0.9912,0.9911,0.991,0.9909,0,0.9607,0.9651,0.9665,0.9717,0.973,0.9729,0.9774,0.978,0.9813,0.9826,0.9832,0.9883,0.9903,0.9948,0.9982,1.0004,1.0,1.0018,0.9987,0.9993,0.9969,0.997,0.9893,0.9884,0.998,0.9979,0.9979,0,0.968,0.9682,0.9747,0.9753,0.9757,0.9807,0.9809,0.9838,0.9871,0.9882,0.993,0.9939,0.9997,1.0012,1.0046,1.0052,1.006,1.0077,1.0086,1.0072,1.0069,1.008,1.0083,1.0109,1.011,1.011,1.011,0,0.9727,0.9767,0.9777,0.9793,0.9851,0.9854,0.9878,0.9917,0.9932,0.996,0.997,0.9999,1.0014,1.0035,1.0079,1.0099,1.0088,1.0126,1.0106,1.0104,1.0102,1.0101,1.0021,1.0111,1.0111,1.0111,1.0111,0,0.9793,0.9821,0.9829,0.9878,0.9887,0.9894,0.9926,0.9944,0.9981,1.0003,1.0026,1.0064,1.0076,1.0109,1.0125,1.0138,1.015,1.0169,1.0168,1.0172,1.0207,1.0153,1.0074,1.0066,1.0173,1.0174,1.0174,0,0.9832,0.9855,0.99,0.9908,0.9925,0.9978,0.9987,1.0019,1.0051,1.0069,1.0104,1.0126,1.016,1.0174,1.0176,1.0213,1.0195,1.0217,1.024,1.024,1.0225,1.0154,1.013,1.0086,1.0182,1.0181,1.0181,0,0.987,0.9943,0.9942,0.9963,1.0016,1.0032,1.0043,1.0076,1.0086,1.012,1.0129,1.0162,1.0188,1.0211,1.0247,1.0247,1.0208,1.0276,1.0278,1.026,1.0191,1.0167,1.016,1.0232,1.0231,1.0231,1.0187,0,0.9954,0.9974,0.9973,1.0021,1.0041,1.0051,1.0103,1.0117,1.0149,1.0183,1.02,1.0243,1.0278,1.0284,1.0317,1.0302,1.0312,1.0342,1.0378,1.0331,1.0317,1.0312,1.0393,1.0394,1.0395,1.0396,0,0,0.998,1.001,1.0063,1.0077,1.0097,1.0155,1.016,1.0187,1.024,1.0252,1.0272,1.0326,1.0361,1.0375,1.0365,1.0381,1.0382,1.0398,1.0353,1.0348,1.0344,1.0328,1.0322,1.0398,1.0399,1.0399,1.0399,0,1.0022,1.0057,1.0064,1.0093,1.014,1.0178,1.0179,1.0236,1.0259,1.0278,1.0326,1.0343,1.0387,1.0416,1.0437,1.0397,1.0433,1.0404,1.0364,1.0363,1.0356,1.0351,1.0334,1.0328,1.0402,1.0402,1.0402,0,1.0067,1.011,1.0119,1.0171,1.0203,1.0222,1.0271,1.029,1.0303,1.0369,1.0387,1.0418,1.0463,1.0472,1.0479,1.0498,1.0475,1.0494,1.0488,1.049,1.0492,1.0484,1.0477,1.057,1.057,1.057,0,0,1.0096,1.0117,1.018,1.0185,1.0201,1.0258,1.0275,1.031,1.035,1.0365,1.0408,1.0445,1.047,1.0486,1.0514,1.0517,1.053,1.0512,1.0504,1.0498,1.0496,1.0496,1.0488,1.0572,1.0572,1.0572,0,0,1.0111,1.0185,1.0211,1.0224,1.0259,1.0323,1.0323,1.0357,1.0388,1.0393,1.0454,1.0467,1.0477,1.0507,1.0519,1.0527,1.0562,1.0561,1.0508,1.0499,1.0491,1.0483,1.0577,0,0,0,0,0,1.0183,1.0176,1.0199,1.0209,1.0277,1.031,1.0319,1.0369,1.0391,1.039,1.043,1.0469,1.0525,1.0537,1.0546,1.0533,1.0589,1.0586,1.0583,1.0516,1.0506,1.0497,0,0,0,0,0,0,1.0188,1.02,1.0199,1.0261,1.0277,1.031,1.0359,1.0372,1.0393,1.0399,1.046,1.0471,1.0514,1.0535,1.0543,1.053,1.0575,1.0588,1.0585,1.0583,1.0513,1.0504,1.0497,0,0,0,0,0,1.0192,1.0202,1.0298,1.0262,1.0276,1.034,1.036,1.0371,1.0388,1.0452,1.0464,1.0424,1.0513,1.0523,1.054,1.0525,1.057,1.0573,1.0586,1.0584,1.0582,1.0508,0,0,0,0,0,0,1.0194,1.0213,1.0302,1.0308,1.027,1.034,1.0352,1.037,1.0441,1.0452,1.042,1.0424,1.0511,1.0519,1.0527,1.052,1.0566,1.0569,1.057,1.0585,1.0583,1.0582,0,0,0,0,0,0,1.0207,1.0217,1.0305,1.0312,1.0319,1.0338,1.035,1.0373,1.0441,1.0404,1.041,1.0421,1.0501,1.0517,1.0523,1.0557,1.0563,1.0566,1.0567,1.0568,1.0583,1.0582,0,0,0,0,0,0,1.0212,1.0221,1.0311,1.0316,1.0323,1.0394,1.036,1.0427,1.0446,1.04,1.0449,1.045,1.0497,1.0504,1.052,1.0552,1.0556,1.0563,1.0565,1.0566,1.0567,0,0,0,0,0,0,0,1.0217,1.0149,1.0266,1.032,1.0326,1.0364,1.0365,1.0367,1.0446,1.0447,1.0449,1.045,1.0548,1.0551,1.0554,1.0547,0,0,1.0563,1.0564,0,0,0,0,0,0,0,0,1.0146,1.0148,1.0266,1.0268,1.0269,1.0364,1.0365,1.0367,1.0446,1.0447,1.0448,1.0449,1.0549,1.0551,1.0554,0,0,0,0,0,0,0,0,0,0,0,0,0,0,0,1.0266,1.0268,0,1.0364,1.0365,1.0366,1.0446,1.0447,1.0448,1.0449,1.055,1.0552,1.0554,0,0,0,0,0,0,0,0,0,0,0,0,0,0,0,0,0,0,0,0,0,0,0,0,0,0,0,0,0,0,0,0,0,0,0,0,0,0,0,0,0,0,0,0,0,0,0,0,0,0,0,0,0,0,0,0,0,0,0,0,0,0,0,0,0,0,0,0,0]}]]]